ラ・サグラ彗星

P/2012 NJ ( La Sagra )

English version
Home page
Updated on June 15, 2014

---------------------------------------------------------------------

・ プロフィール

発見日 2012年7月13日
発見光度 14.6等
発見者 La Sagra survey

・ 写真集

・ 軌道要素

Epoch 2012 June 2.0 TT = JDT 2456080.5
T 2012 June 13.08831 TT                                 MPC
q   1.2918786            (2000.0)            P               Q
n   0.03974500     Peri.  338.41169     +0.64104269     +0.32719566
a   8.5038261      Node   315.76308     -0.47321671     -0.54368020
e   0.8480827      Incl.   84.37483     -0.60426005     +0.77288734
P  24.8
From 2438 observations 2012 July 13-2013 Apr. 11, mean residual 0".3.

・ 星図

・ 光度変化

        H = 13.0  G = 0.15

---------------------------------------------------------------------

軌道要素はM.P.E.C. 2014-J58に掲載されたものです。
星図はステラナビゲータ Ver.8 (アストロアーツ) で作成したものです。
光度グラフはComet for Windowsで作成したものです。

---------------------------------------------------------------------

Copyright(C) Seiichi Yoshida (comet@aerith.net). All rights reserved.